The latest logged pinball scores

These are the latest added pinball scores by all Pinsiders on all games. Click a game name to show only scores on that game. Click a Pinsider name to show all his/her scores.

There are 43,992 pinball scores stored in our database.

Pinside scores allow you to keep track of the scores you set on (your) games. Give it a try! Enter some of your pinball scores and see how they stack up against other Pinsiders' scores!



Game Score Photo Scored Location Pinsider Ranking
Halloween (Collectors Edition) 13,033,290 2021-09-09 home chewitt #2
Avengers: Infinity Quest (Premium) 584,022,630 2021-09-23 home skogen75 #35
Earthshaker 16,247,070 2021-09-23 home HeJustDuzTheRest #63
Count-Down 387,220 2021-09-23 home Kueber #10
Surfer 110,000 2021-09-23 home S_Parker #5
Attack From Mars (Remake - Special) 8,043,436,340 2021-09-23 home S_Parker #30
Stranger Things (Pro) 2,027,890,150 2021-09-23 home MikeyyGloom #6
Whirlwind 7,120,550 2021-09-23 location frdelrosario #222
Theatre of Magic 2,950,540,090 2021-09-23 home zeldarioid #47
Jurassic Park (Premium) 625,477,250 2021-09-23 home Hairbear #57
Roller Disco 1,159,370 2021-09-23 home Stiletto #1
Flight 2000 3,153,980 2021-09-22 home DanMarino #8
The Mandalorian (Premium) 3,394,336,610 2021-09-22 home jjeffcoat #1
Twilight Zone 2,491,381,280 2021-09-22 home TommyTommy #52
Alien (Standard) 312,451,200 2021-09-22 home Zablon #1
Time Machine 4,297,300 2021-09-22 location DiscoBubbles1999 #28
Flash Gordon 819,550 2021-09-22 home TurtlesFan #63
Jurassic Park (Premium) 554,678,200 2021-09-22 home JF711 #69
Teenage Mutant Ninja Turtles 20,482,850 2021-09-22 home Canteau #9
Avengers: Infinity Quest (Limited E... 96,050,660 2021-09-21 location scsuhusky75 #37
Jurassic Park (Limited Edition) 215,779,320 2021-09-21 location scsuhusky75 #42
Stranger Things (LE) 89,046,730 2021-09-21 location scsuhusky75 #33
Halloween (Collectors Edition) 10,228,720 2021-09-21 location scsuhusky75 #3
Radical! 9,890,630 2021-09-21 location scsuhusky75 #28
Star Trek: The Next Generation 2,640,641,770 2021-09-21 home RedShirt1701 #135
Machine: Bride of Pinbot, The 89,695,880 2021-08-09 home MarvelousMarvin #77
Attack From Mars (Remake - Special) 21,274,919,810 2021-09-22 home Green-Machine #7
Avengers: Infinity Quest (Premium) 794,181,910 2021-09-22 home Plungerboy #23
Space Shuttle 2,170,210 2021-09-21 home NatetheGreat #32
Creature from the Black Lagoon 403,153,630 2021-09-21 home Rscontrino #116
Robocop 2,038,000 2021-09-21 home kst8cat #33
Catacomb 326,810 2021-09-21 home kst8cat #12
Star Gazer 2,040,750 2021-09-21 home kst8cat #10
Alien (Standard) 14,960,260 2021-09-16 home ElCid95 #6
Mustang (Pro) 375,495,350 2021-09-21 home dravenscott #15
Deadpool (Premium) 445,000,000 2021-09-21 home WolfWeb #44
Deadpool (Premium) 449,000 2021-09-21 home WolfWeb #81
The Mandalorian (LE) 100,963,000 2021-09-15 home PinballManiac40 #13
Iron Maiden: Legacy of the Beast (P... 349,631,250 2021-09-15 home PinballManiac40 #87
Bad Cats 24,396,900 2021-09-17 home PinballManiac40 #16
KISS (Pro) 220,975,140 2021-09-20 home BigMike #31
Tales of the Arabian Nights 644,620 2021-09-01 location Zac1025 #239
Led Zeppelin (Premium) 1,423,542,880 2021-09-17 home eharan #6
The Who's Tommy Pinball Wizard 86,063,500 2021-09-01 location Zac1025 #70
Road Show 32,161,530 2021-09-01 location Zac1025 #228
White Water 12,035,770 2021-09-01 location Zac1025 #293
The Simpsons Pinball Party 2,911,480 2021-09-01 location Zac1025 #292
Aerosmith (Pro) 6,007,540 2021-09-01 location Zac1025 #140
Judge Dredd 65,197,860 2021-09-01 location Zac1025 #154
Theatre of Magic 513,933,380 2021-09-01 location Zac1025 #280
Batman 66 61,166,640 2021-09-03 location Zac1025 #226
Willy Wonka & The Chocolate Factory... 81,940 2021-09-03 location Zac1025 #114
Whirlwind 1,604,980 2021-09-01 location Zac1025 #287
Addams Family, The 36,990,940 2021-09-21 home Zac1025 #504
Monopoly 15,256,710 2021-09-21 home Zac1025 #65
Star Trek (Premium/LE) 331,886,450 2021-09-21 home Scott250r #40
Deadpool (Pro) 165,861,540 2021-09-20 home UCFKnight71 #206
Ghostbusters (Pro) 6,175,371,850 2021-09-21 home Allibaster #40
Monster Bash (Classic Edition) 267,410,910 2021-09-20 home Magneto8472 #6
Deadpool (Premium) 1,124,351,620 2021-09-20 home glpinball #25
Centaur 1,633,850 2021-09-20 home Coco418 #61
Goldeneye 1,283,780,010 2021-09-20 home kst8cat #28
Deadpool (Pro) 302,721,590 2021-09-20 home jviessman1031 #173
Dragon EM 198,900 2021-09-20 home jviessman1031 #7
Addams Family, The 1,080,256,930 2021-09-20 home Snoticus #46
Stranger Things (LE) 313,515,300 2021-08-25 home Comster #21
Medieval Madness (Remake - Special ... 81,953,970 2021-09-20 home Hairbear #4
Theatre of Magic 654,026,390 2021-09-20 location frdelrosario #255
2001 6,881 2021-09-20 location frdelrosario #9
The Simpsons Pinball Party 105,051,490 2021-09-20 home Sean_bc #114
Guardians of the Galaxy (Pro) 2,294,577,040 2021-09-20 home Rscontrino #42
Happy Clown 1,020 2021-09-20 home Mcrics #2
Happy Clown 1,837 2021-09-20 home Mcrics #1
Avengers: Infinity Quest (Premium) 180,039,240 2021-09-19 home kst8cat #89
Theatre of Magic 888,948,160 2021-09-20 home Vonbaronmattso #215
Gilligan's Island 176,320,280 2021-09-20 home Inferno #11
Party Zone 143,567,999 2021-09-19 home Robjenga #36
Whirlwind 64,393,050 2021-09-20 home Pinicus #17
Atlantis 500,000 2021-09-20 location tundrorock #34
World Cup Soccer 776,018,350 2021-09-20 home EDAWGG5 #207
Monster Bash 61,082,380 2021-09-20 home EDAWGG5 #201
Creature from the Black Lagoon 1,904,240,140 2021-09-20 home Jedi_Scott #14
Creature from the Black Lagoon 1,495,136,900 2021-09-20 home Jedi_Scott #21
Team One 183,950 2021-09-19 home jasonspoint28 #9
Centaur 1,003,080 2021-09-19 home Dwboca #77
The Mandalorian (Pro) 442,293,390 2021-08-10 home JPloof #6
Champ 93,960 2021-09-19 location TempleTheBard #8
Laser Ball 106,880 2021-09-19 location TempleTheBard #20
Fathom 2,001,730 2021-09-18 location TempleTheBard #39
Black Knight 664,400 2021-09-18 location TempleTheBard #91
Black Knight 555,400 2021-09-18 location TempleTheBard #99
Hurdy Gurdy 5,373 2021-09-18 location TempleTheBard #7
Scuba 3,112 2021-09-18 location TempleTheBard #10
Scuba 4,136 2021-09-18 location TempleTheBard #8
Scuba 4,358 2021-09-18 location TempleTheBard #7
Scuba 5,117 2021-09-18 location TempleTheBard #5
Willy Wonka & The Chocolate Factory... 12,656,890 2021-09-19 home PinballboyGER #8
Junk Yard 11,969,940 2021-09-04 home douggalecawitz #87
Popeye Saves the Earth 111,350,180 2021-09-02 home douggalecawitz #69
Rick and Morty (Blood Sucker Editio... 97,180,616 2021-09-19 home cooked71 #12

There are 43992 scores logged in the Pinside score database. Currently showing results page 1 of 440.